TimePST,TemperatureF,Dew PointF,Humidity,Sea Level PressureIn,VisibilityMPH,Wind Direction,Wind SpeedMPH,Gust SpeedMPH,PrecipitationIn,Events,Conditions,WindDirDegrees,DateUTC
12:53 AM,42.1,41.0,96,29.92,10.0,East,13.8,21.9,0.00,Rain,Light Rain,100,2013-01-07 08:53:00
1:53 AM,42.1,39.9,92,29.91,8.0,ESE,12.7,-,0.01,Rain,Light Rain,110,2013-01-07 09:53:00
2:53 AM,42.1,39.9,92,29.89,10.0,East,13.8,-,0.01,Rain,Light Rain,100,2013-01-07 10:53:00
3:28 AM,42.8,39.2,87,29.87,9.0,East,12.7,-,0.00,Rain,Light Rain,100,2013-01-07 11:28:00
3:53 AM,43.0,41.0,93,29.86,9.0,ESE,13.8,-,0.00,Rain,Light Rain,110,2013-01-07 11:53:00
4:53 AM,43.0,41.0,93,29.81,10.0,ESE,15.0,21.9,0.00,Rain,Light Rain,110,2013-01-07 12:53:00
5:53 AM,43.0,41.0,93,29.81,10.0,ESE,12.7,-,0.00,Rain,Light Rain,120,2013-01-07 13:53:00
6:53 AM,44.1,42.1,93,29.79,10.0,ESE,12.7,-,0.00,,Overcast,110,2013-01-07 14:53:00
7:53 AM,44.1,42.1,93,29.80,10.0,ESE,9.2,-,N/A,,Overcast,110,2013-01-07 15:53:00
8:31 AM,44.6,42.8,93,29.81,4.0,SE,9.2,-,0.00,Rain,Light Rain,140,2013-01-07 16:31:00
8:53 AM,45.0,44.1,97,29.81,4.0,SE,9.2,-,0.00,Rain,Light Rain,140,2013-01-07 16:53:00
9:24 AM,44.6,44.6,100,29.81,10.0,South,6.9,-,0.00,,Overcast,170,2013-01-07 17:24:00
9:42 AM,44.6,44.6,100,29.82,10.0,South,8.1,-,0.00,,Overcast,170,2013-01-07 17:42:00
9:53 AM,46.0,45.0,96,29.82,10.0,South,8.1,-,0.00,,Overcast,180,2013-01-07 17:53:00
10:13 AM,46.4,44.6,93,29.83,10.0,South,9.2,17.3,N/A,,Overcast,190,2013-01-07 18:13:00
10:35 AM,46.4,44.6,93,29.83,10.0,SSW,11.5,-,N/A,,Overcast,200,2013-01-07 18:35:00
10:53 AM,46.9,45.0,93,29.83,10.0,SSW,13.8,21.9,N/A,,Scattered Clouds,200,2013-01-07 18:53:00
11:17 AM,46.4,44.6,93,29.84,10.0,SSW,13.8,24.2,N/A,,Mostly Cloudy,200,2013-01-07 19:17:00
11:53 AM,46.9,45.0,93,29.85,10.0,SSW,16.1,24.2,N/A,,Overcast,200,2013-01-07 19:53:00
12:23 PM,48.2,46.4,93,29.85,10.0,SSW,12.7,29.9,N/A,,Scattered Clouds,210,2013-01-07 20:23:00
12:46 PM,48.2,46.4,93,29.87,10.0,SW,9.2,23.0,N/A,,Partly Cloudy,230,2013-01-07 20:46:00
12:53 PM,48.0,46.0,93,29.87,10.0,SW,13.8,24.2,N/A,,Scattered Clouds,220,2013-01-07 20:53:00
1:53 PM,48.0,45.0,89,29.90,10.0,SW,12.7,29.9,N/A,,Partly Cloudy,230,2013-01-07 21:53:00
2:30 PM,48.2,44.6,87,29.91,10.0,SW,15.0,33.4,N/A,,Partly Cloudy,230,2013-01-07 22:30:00
2:53 PM,48.0,43.0,83,29.92,10.0,WSW,10.4,25.3,N/A,,Clear,240,2013-01-07 22:53:00
3:53 PM,48.0,41.0,77,29.96,10.0,SW,12.7,26.5,N/A,,Clear,230,2013-01-07 23:53:00
4:53 PM,46.9,39.0,74,29.99,10.0,SW,10.4,24.2,N/A,,Clear,230,2013-01-08 00:53:00
5:53 PM,46.0,39.0,76,30.02,10.0,WSW,9.2,21.9,N/A,,Clear,240,2013-01-08 01:53:00
6:53 PM,46.0,39.0,76,30.05,10.0,WSW,5.8,-,N/A,,Clear,250,2013-01-08 02:53:00
7:53 PM,44.1,37.9,79,30.06,10.0,Calm,Calm,-,N/A,,Clear,0,2013-01-08 03:53:00
8:53 PM,39.9,37.9,93,30.10,10.0,West,3.5,-,N/A,,Clear,280,2013-01-08 04:53:00
9:53 PM,37.9,37.0,97,30.12,10.0,Calm,Calm,-,N/A,,Clear,0,2013-01-08 05:53:00
10:53 PM,39.9,39.0,97,30.13,10.0,Calm,Calm,-,N/A,,Scattered Clouds,0,2013-01-08 06:53:00
11:53 PM,43.0,39.0,86,30.14,10.0,SW,4.6,-,N/A,,Partly Cloudy,220,2013-01-08 07:53:00